Regional Weather Roundup
Issued by NWS Albany, NY

Home | Current Version | Previous Version | Text Only | Print | Product List | Glossary On
Versions: 1 2 3 4 5 6 7 8 9 10 11 12 13 14 15 16 17 18 19 20 21 22 23 24 25 26 27
000
ASUS41 KALY 151310
RWRALY

NEW YORK STATE HOURLY WEATHER ROUNDUP
NATIONAL WEATHER SERVICE ALBANY NY
800 AM EST MON JAN 15 2018

NOTE: "FAIR" INDICATES FEW OR NO CLOUDS BELOW 12,000 FEET WITH NO
SIGNIFICANT WEATHER AND/OR NO OBSTRUCTIONS TO VISIBILITY.

NYZ032-033-038>043-046>054-057>066-NYZ062>081-082-084-151400-
EAST


CITY           SKY/WX    TMP DP  RH WIND       PRES   REMARKS
ALBANY         MOCLDY     5  -2  72 N6        30.77S WCI  -6
GLENS FALLS    FAIR       3  -1  83 NE5       30.78S WCI  -6
POUGHKEEPSIE   FAIR       9   1  70 N9        30.73S WCI  -4
NEWBURGH       MOCLDY     9   3  78 VRB5      30.70S WCI   0
MONTGOMERY     MOCLDY    11   2  67 NE8       30.68F WCI  -1
WHITE PLAINS   FAIR      14   5  67 N8        30.64F WCI   3
ISLIP          CLOUDY    21  14  74 N12       30.67S WCI   9
NEW YORK CITY  FAIR      18   9  68 NE14      30.67F WCI   4
CENTRAL PARK   FAIR      18   7  62 NE9       30.67F WCI   7
$$

NYZ005>009-017-018-044>046-055-056-151400-
CENTRAL


CITY           SKY/WX    TMP DP  RH WIND       PRES   REMARKS
FULTON         FAIR       0  -5  79 E5        30.65F WCI -10
SYRACUSE       FAIR      -3  -6  87 E9        30.66F WCI -19
ROME           FAIR      -1  -5  82 E7        30.71F WCI -14
ELMIRA         FAIR      -9 -12  87 CALM      30.59R
BINGHAMTON     FAIR      -2  -6  83 E9        30.50F WCI -18
MONTICELLO     FLURRIES   7   2  80 E10       30.59S WCI  -8
$$

NYZ026>034-041>043-087-151400-
NORTH


CITY           SKY/WX    TMP DP  RH WIND       PRES   REMARKS
WATERTOWN      FAIR       6 -12  43 NE10      30.70F WCI  -9
FORT DRUM      NOT AVBL
OGDENSBURG     FAIR      -7 -10  84 NE5       30.76S WCI -18
MASSENA        FAIR      -7 -11  83 NE9       30.81R WCI -24
SARANAC LAKE   FAIR     -18 -23  77 CALM      30.58R
PLATTSBURGH    FAIR     -14 -20  74 SW3       30.83R
$$

NYZ001>004-010>016-019>021-085-151400-
WEST


CITY           SKY/WX    TMP DP  RH WIND       PRES   REMARKS
NIAGARA FALLS  FAIR      10   0  63 E9        30.52F WCI  -3
BUFFALO        MOCLDY     8   0  69 E7        30.51F WCI  -3
DUNKIRK        FAIR       5  -1  76 NE8       30.48F WCI  -8
JAMESTOWN      FAIR       6   0  76 S13G21    30.37F WCI -10
WELLSVILLE     FAIR       2  -3  80 MISG      30.40F
ROCHESTER      MOCLDY     3   0  87 E8        30.59F WCI -10
PENN YAN       FAIR      -6 -10  83 CALM      30.56F
$$

             KEY
       WCI = WIND CHILL INDEX
       VSB = VISIBILITY
       HX  = HEAT INDEX
$$




USA.gov is the U.S. government's official web portal to all federal, state and local government web resources and services.